• In United Kingdom
  • List of Countries
  • For 7 days
  • Water Temperature
  • Satellite Maps
  • Weather Map
  • Weather Widgets
  • user-avatar
    Login

    Hourly Weather Armagh

    Today, 23 September, Sunday

    Time Temperature Precipitation Wind Pressure Humidity
    00:00 +6°C° 0 mm 2 mps 758 mmHg 85%
    01:00 +6°C° 0 mm 2 mps 758 mmHg 85%
    02:00 +6°C° 0 mm 2 mps 758 mmHg 85%
    03:00 +5°C° 0 mm 2 mps 758 mmHg 85%
    04:00 +4°C° 0 mm 3 mps 759 mmHg 87%
    05:00 +4°C° 0 mm 3 mps 759 mmHg 88%
    06:00 +3°C° 0 mm 3 mps 759 mmHg 90%
    07:00 +5°C° 0 mm 4 mps 760 mmHg 84%
    08:00 +7°C° 0 mm 5 mps 760 mmHg 77%
    09:00 +8°C° 0 mm 5 mps 761 mmHg 71%
    10:00 +9°C° 0.1 mm 6 mps 762 mmHg 68%
    11:00 +10°C° 0.1 mm 6 mps 762 mmHg 66%
    12:00 +11°C° 0.1 mm 6 mps 763 mmHg 63%
    13:00 +11°C° 0 mm 6 mps 764 mmHg 63%
    14:00 +11°C° 0 mm 6 mps 764 mmHg 63%
    15:00 +11°C° 0 mm 6 mps 765 mmHg 62%
    16:00 +10°C° 0 mm 5 mps 766 mmHg 67%
    17:00 +9°C° 0 mm 5 mps 766 mmHg 72%
    18:00 +8°C° 0 mm 4 mps 767 mmHg 76%
    19:00 +7°C° 0 mm 4 mps 768 mmHg 80%
    20:00 +7°C° 0 mm 3 mps 769 mmHg 84%
    21:00 +5°C° 0 mm 3 mps 770 mmHg 87%
    22:00 +4°C° 0 mm 3 mps 770 mmHg 89%
    23:00 +4°C° 0 mm 3 mps 771 mmHg 90%

    Tomorrow, 24 September, Monday

    Time Temperature Precipitation Wind Pressure Humidity
    00:00 +5°C° 0 mm 2 mps 771 mmHg 91%
    01:00 +4°C° 0 mm 2 mps 771 mmHg 92%
    02:00 +4°C° 0 mm 2 mps 772 mmHg 93%
    03:00 +4°C° 0 mm 2 mps 772 mmHg 93%
    04:00 +4°C° 0 mm 2 mps 772 mmHg 94%
    05:00 +4°C° 0 mm 2 mps 772 mmHg 94%
    06:00 +4°C° 0 mm 2 mps 772 mmHg 94%
    07:00 +6°C° 0 mm 2 mps 773 mmHg 89%
    08:00 +7°C° 0 mm 3 mps 773 mmHg 84%
    09:00 +9°C° 0 mm 3 mps 773 mmHg 79%
    10:00 +10°C° 0 mm 3 mps 773 mmHg 74%
    11:00 +11°C° 0 mm 3 mps 774 mmHg 69%
    12:00 +13°C° 0 mm 3 mps 774 mmHg 65%
    13:00 +13°C° 0 mm 3 mps 773 mmHg 64%
    14:00 +13°C° 0 mm 3 mps 773 mmHg 63%
    15:00 +13°C° 0 mm 3 mps 773 mmHg 62%
    16:00 +12°C° 0 mm 3 mps 773 mmHg 68%
    17:00 +12°C° 0 mm 2 mps 773 mmHg 74%
    18:00 +9°C° 0 mm 2 mps 772 mmHg 80%
    19:00 +9°C° 0 mm 2 mps 773 mmHg 83%
    20:00 +8°C° 0 mm 2 mps 773 mmHg 86%
    21:00 +7°C° 0 mm 2 mps 773 mmHg 90%
    22:00 +6°C° 0 mm 2 mps 772 mmHg 90%
    23:00 +6°C° 0 mm 2 mps 772 mmHg 90%

    Day after tomorrow, 25 September, Tuesday

    Time Temperature Precipitation Wind Pressure Humidity
    00:00 +5°C° 0 mm 3 mps 772 mmHg 90%
    01:00 +5°C° 0 mm 3 mps 771 mmHg 90%
    02:00 +4°C° 0 mm 3 mps 771 mmHg 90%
    03:00 +4°C° 0 mm 3 mps 770 mmHg 90%
    04:00 +5°C° 0 mm 4 mps 770 mmHg 87%
    05:00 +5°C° 0 mm 4 mps 769 mmHg 85%
    06:00 +6°C° 0 mm 5 mps 769 mmHg 83%
    07:00 +6°C° 0.1 mm 5 mps 768 mmHg 84%
    08:00 +7°C° 0.1 mm 6 mps 768 mmHg 85%
    09:00 +8°C° 0.1 mm 6 mps 768 mmHg 86%
    10:00 +9°C° 0.2 mm 7 mps 767 mmHg 86%
    11:00 +9°C° 0.2 mm 7 mps 767 mmHg 85%
    12:00 +10°C° 0.2 mm 7 mps 766 mmHg 85%
    13:00 +10°C° 0.4 mm 7 mps 766 mmHg 86%
    14:00 +10°C° 0.4 mm 7 mps 765 mmHg 87%
    15:00 +10°C° 0.4 mm 7 mps 765 mmHg 89%
    16:00 +10°C° 0.1 mm 7 mps 765 mmHg 89%
    17:00 +10°C° 0.1 mm 7 mps 764 mmHg 89%
    18:00 +10°C° 0.1 mm 7 mps 764 mmHg 89%
    19:00 +11°C° 0.1 mm 7 mps 764 mmHg 91%
    20:00 +11°C° 0.1 mm 7 mps 764 mmHg 92%
    21:00 +11°C° 0.1 mm 7 mps 764 mmHg 93%
    22:00 +11°C° 0 mm 6 mps 764 mmHg 93%
    23:00 +13°C° 0 mm 6 mps 763 mmHg 94%

    26 September, Wednesday

    Time Temperature Precipitation Wind Pressure Humidity
    00:00 +13°C° 0 mm 6 mps 763 mmHg 94%
    01:00 +13°C° 0.1 mm 6 mps 763 mmHg 94%
    02:00 +14°C° 0.1 mm 6 mps 762 mmHg 94%
    03:00 +14°C° 0.1 mm 7 mps 762 mmHg 94%
    04:00 +14°C° 0 mm 7 mps 762 mmHg 93%
    05:00 +15°C° 0 mm 7 mps 762 mmHg 92%
    06:00 +15°C° 0 mm 7 mps 762 mmHg 92%
    07:00 +15°C° 0 mm 7 mps 762 mmHg 91%
    08:00 +15°C° 0 mm 7 mps 762 mmHg 90%
    09:00 +16°C° 0 mm 7 mps 763 mmHg 90%
    10:00 +16°C° 0 mm 7 mps 763 mmHg 88%
    11:00 +16°C° 0 mm 7 mps 763 mmHg 87%
    12:00 +16°C° 0 mm 7 mps 764 mmHg 86%
    13:00 +17°C° 0 mm 7 mps 763 mmHg 85%
    14:00 +17°C° 0 mm 7 mps 763 mmHg 84%
    15:00 +17°C° 0 mm 6 mps 763 mmHg 83%
    16:00 +17°C° 0 mm 6 mps 763 mmHg 85%
    17:00 +16°C° 0 mm 5 mps 763 mmHg 87%
    18:00 +15°C° 0 mm 5 mps 764 mmHg 88%
    19:00 +15°C° 0 mm 5 mps 764 mmHg 90%
    20:00 +14°C° 0 mm 4 mps 764 mmHg 92%
    21:00 +14°C° 0 mm 4 mps 764 mmHg 94%
    22:00 +14°C° 0 mm 4 mps 764 mmHg 94%
    23:00 +14°C° 0 mm 4 mps 764 mmHg 94%

    27 September, Thursday

    Time Temperature Precipitation Wind Pressure Humidity
    00:00 +13°C° 0 mm 4 mps 764 mmHg 94%
    01:00 +13°C° 0 mm 4 mps 763 mmHg 94%
    02:00 +12°C° 0 mm 4 mps 763 mmHg 95%
    03:00 +11°C° 0 mm 4 mps 763 mmHg 95%
    04:00 +11°C° 0 mm 4 mps 762 mmHg 95%
    05:00 +11°C° 0 mm 4 mps 762 mmHg 94%
    06:00 +10°C° 0 mm 4 mps 762 mmHg 93%
    07:00 +11°C° 0 mm 4 mps 762 mmHg 88%
    08:00 +12°C° 0 mm 5 mps 761 mmHg 83%
    09:00 +13°C° 0 mm 5 mps 761 mmHg 78%
    10:00 +14°C° 0 mm 5 mps 761 mmHg 76%
    11:00 +15°C° 0 mm 5 mps 761 mmHg 74%
    12:00 +16°C° 0 mm 5 mps 762 mmHg 73%
    13:00 +15°C° 0.1 mm 5 mps 762 mmHg 76%
    14:00 +15°C° 0.1 mm 5 mps 762 mmHg 80%
    15:00 +14°C° 0.1 mm 4 mps 762 mmHg 84%
    16:00 +13°C° 0 mm 4 mps 762 mmHg 85%
    17:00 +11°C° 0 mm 4 mps 762 mmHg 86%
    18:00 +9°C° 0 mm 5 mps 763 mmHg 87%
    19:00 +8°C° 0 mm 4 mps 763 mmHg 87%
    20:00 +8°C° 0 mm 4 mps 764 mmHg 87%
    21:00 +7°C° 0 mm 4 mps 765 mmHg 87%
    22:00 +7°C° 0 mm 4 mps 765 mmHg 87%
    23:00 +6°C° 0 mm 4 mps 765 mmHg 88%

    28 September, Friday

    Time Temperature Precipitation Wind Pressure Humidity
    00:00 +7°C° 0 mm 3 mps 765 mmHg 88%
    01:00 +7°C° 0 mm 3 mps 765 mmHg 89%
    02:00 +5°C° 0 mm 3 mps 766 mmHg 90%
    03:00 +5°C° 0 mm 3 mps 766 mmHg 90%
    04:00 +5°C° 0 mm 3 mps 766 mmHg 91%
    05:00 +5°C° 0 mm 3 mps 766 mmHg 91%
    06:00 +4°C° 0 mm 3 mps 767 mmHg 92%
    07:00 +7°C° 0 mm 3 mps 767 mmHg 87%
    08:00 +8°C° 0 mm 3 mps 768 mmHg 82%
    09:00 +8°C° 0 mm 4 mps 768 mmHg 77%
    10:00 +10°C° 0 mm 4 mps 768 mmHg 73%
    11:00 +11°C° 0 mm 4 mps 769 mmHg 68%
    12:00 +12°C° 0 mm 4 mps 769 mmHg 64%
    13:00 +12°C° 0 mm 3 mps 769 mmHg 64%
    14:00 +12°C° 0 mm 3 mps 768 mmHg 64%
    15:00 +12°C° 0 mm 3 mps 768 mmHg 64%
    16:00 +12°C° 0 mm 2 mps 768 mmHg 69%
    17:00 +10°C° 0 mm 2 mps 769 mmHg 74%
    18:00 +9°C° 0 mm 1 mps 769 mmHg 79%
    19:00 +9°C° 0 mm 1 mps 769 mmHg 82%
    20:00 +8°C° 0 mm 1 mps 769 mmHg 85%
    21:00 +7°C° 0 mm 1 mps 769 mmHg 89%
    22:00 +7°C° 0 mm 1 mps 769 mmHg 89%
    23:00 +6°C° 0 mm 1 mps 769 mmHg 90%
    Show more